Temperature
18 18 18 17 17 17 16 16 16 15 15 14 14 14 14 13 13 13 13 12 12 12 12 12 12 12 12 12 12 12 12 12 12 13 13 12 11 11 11 11 12 12 12
19 18 18 18 17 17 16 16 16 15 15 15 14 14 14 13 13 13 13 13 12 12 12 12 12 12 12 12 12 12 12 11 11 12 12 12 12 11 11 11 11 12 12
19 19 18 18 18 17 17 16 16 16 15 15 14 14 14 13 13 13 13 13 13 12 12 12 12 12 12 12 11 12 12 12 11 11 12 12 11 11 11 11 11 11 12
19 19 19 18 18 17 17 16 16 16 15 15 15 14 14 14 14 13 13 13 13 13 12 12 12 12 12 12 11 11 11 11 11 11 12 12 12 11 11 11 12 12 12
19 19 19 19 18 17 17 16 16 16 15 15 15 14 14 14 14 14 13 13 13 13 13 13 12 12 12 12 12 11 11 11 11 12 12 12 12 11 11 11 12 11 12
20 19 19 19 18 18 17 17 16 16 15 15 15 15 14 14 14 14 14 13 13 13 13 13 12 12 13 13 12 12 12 11 11 11 11 12 11 11 11 11 11 11 11
20 19 19 18 18 18 17 17 16 16 16 15 15 15 15 15 15 15 14 14 13 13 13 13 13 13 12 12 12 12 12 12 12 11 11 11 11 11 10 10 10 10 10
19 19 18 18 18 18 17 17 16 16 16 15 15 15 15 15 15 15 14 14 14 13 13 13 13 13 12 12 12 11 11 11 11 11 11 11 10 10 10 10 9 9 9
18 18 18 18 18 17 17 17 16 16 16 15 15 15 15 15 15 15 14 14 13 13 13 13 13 13 13 13 12 11 11 11 11 11 11 11 11 10 10 9 9 10 10
18 17 17 17 17 17 17 17 16 16 16 15 15 15 15 15 15 15 14 14 13 13 13 13 13 13 13 13 12 12 11 11 11 11 11 11 11 10 10 10 9 10 10
17 17 17 17 17 16 16 16 16 15 15 15 15 14 14 14 14 14 14 13 13 13 13 13 13 13 13 13 12 12 12 12 11 11 11 10 10 10 10 9 9 9 10
16 16 16 16 16 16 16 15 15 15 14 15 14 14 14 14 14 14 14 13 13 12 12 13 13 13 12 12 12 12 12 12 11 11 11 11 11 11 11 10 10 9 9
15 15 16 16 15 15 15 14 14 14 14 13 13 14 14 13 13 13 13 13 12 12 12 12 12 12 12 12 12 12 12 11 11 11 11 11 11 11 11 10 10 9 9
14 14 15 15 14 14 14 13 13 13 13 13 13 13 13 13 13 12 12 12 12 12 11 11 11 12 12 12 11 11 11 11 11 11 11 11 11 11 11 10 10 10 9
13 13 13 13 13 13 13 13 12 12 12 12 12 12 12 12 12 11 11 11 11 11 10 10 10 11 11 11 11 11 11 11 10 10 11 11 11 11 11 10 10 10 9
12 12 12 12 12 12 12 11 11 11 11 11 11 11 11 11 11 11 10 10 10 10 10 10 10 11 11 11 12 12 11 11 11 10 10 10 11 11 11 10 10 9 9
11 11 11 11 11 11 11 11 11 11 11 10 10 10 10 10 10 10 10 10 10 10 10 9 10 10 11 11 11 11 11 11 11 10 10 10 10 10 10 10 10 9 9
10 10 10 10 10 11 11 11 11 11 11 11 10 10 10 9 9 9 9 9 9 9 9 10 10 10 10 10 11 11 11 11 10 10 10 10 10 10 10 10 9 9 9
10 10 10 10 10 10 10 10 10 10 10 10 10 10 10 9 9 9 9 8 9 9 9 9 10 10 10 10 10 10 10 10 10 10 10 10 9 9 9 9 9 9 9
10 10 9 10 10 10 10 10 10 10 10 10 10 10 9 9 9 9 9 8 9 9 9 9 9 9 9 9 9 9 9 9 9 9 9 9 9 9 9 9 9 9 9
10 10 10 10 10 10 10 9 9 9 9 9 9 9 8 8 8 8 8 8 8 8 8 8 8 8 8 8 8 8 8 8 8 9 9 9 8 8 9 9 9 8 8
9 10 10 10 9 9 9 9 9 9 9 8 8 8 8 7 7 7 7 7 7 7 7 7 7 8 8 8 8 8 8 8 8 8 8 8 8 8 8 8 8 8 8
9 9 9 9 9 9 8 8 8 8 8 8 8 7 7 7 7 7 7 7 6 6 7 7 7 7 7 7 7 7 7 7 8 8 8 8 8 8 8 8 8 8 8
8 8 9 9 8 8 8 8 8 7 7 7 7 6 6 6 6 6 6 6 6 6 6 6 6 6 6 6 7 7 7 7 7 7 7 7 7 7 7 7 7 7 8
8 8 8 8 8 7 7 7 7 6 6 6 6 6 5 5 5 5 5 5 5 5 5 5 5 6 6 6 6 6 6 7 7 7 7 7 7 7 7 7 7 7 7
7 7 7 7 6 6 6 6 5 5 5 5 5 5 4 4 4 4 4 4 4 4 5 5 5 5 5 6 6 6 6 6 7 7 7 7 7 7 7 7 7 7 7
Wind_Speed
15 14 13 12 12 11 10 10 9 9 9 9 9 8 8 8 8 7 7 6 7 6 6 6 7 6 5 5 5 6 6 7 9 9 8 7 7 9 9 10 12 12 12
15 14 14 13 12 12 12 11 11 10 10 10 9 9 9 9 8 8 8 8 8 8 7 7 8 6 7 7 6 7 7 7 9 11 9 9 9 9 9 10 12 12 12
15 15 15 14 14 14 13 12 11 11 11 10 10 10 10 9 9 9 9 9 9 8 8 8 8 8 8 8 7 8 7 8 8 10 11 9 9 9 9 10 11 10 13
16 16 16 15 15 14 13 13 12 12 12 11 11 11 10 10 10 10 10 10 10 9 9 9 10 10 10 9 8 9 9 9 9 10 10 9 9 9 8 10 10 9 9
16 16 16 15 14 14 13 13 12 12 12 12 11 11 11 11 11 11 10 11 11 11 11 11 11 10 9 9 9 9 8 9 10 10 10 10 9 8 9 9 10 10 10
15 15 14 14 14 14 13 13 13 12 12 12 12 12 12 11 9 10 10 11 11 11 12 12 12 12 13 15 14 13 12 12 12 11 11 11 11 11 9 10 11 11 11
14 13 13 13 14 14 14 13 13 13 13 12 12 13 13 12 11 13 14 12 13 12 12 12 12 11 12 13 15 18 18 19 17 15 15 14 13 12 11 13 12 12 13
12 12 12 13 13 12 13 13 13 12 12 12 13 13 13 13 14 15 14 14 15 15 15 15 14 14 14 13 14 14 15 15 16 16 16 16 15 13 12 13 14 14 14
10 11 11 11 11 12 12 12 12 11 11 12 12 13 13 13 13 15 14 12 13 16 16 16 16 16 15 13 15 16 16 15 16 19 19 18 17 15 13 12 14 14 14
7 7 7 8 9 10 10 10 10 10 10 11 11 12 13 13 11 14 15 12 13 14 14 15 17 19 16 15 16 17 17 17 15 14 15 18 19 19 19 17 16 15 15
3 4 5 6 7 7 7 8 8 9 9 10 10 11 11 12 11 13 15 12 13 14 14 14 13 16 19 19 18 18 18 16 16 15 15 15 15 14 15 16 16 15 15
3 3 4 4 5 5 6 7 7 8 9 9 9 10 10 10 11 11 15 16 15 14 14 15 14 9 13 16 16 18 18 15 15 15 15 15 14 14 13 14 15 16 16
3 3 3 3 2 3 4 6 6 7 8 8 8 9 9 8 8 12 14 16 17 14 14 16 15 13 11 13 18 19 16 14 15 16 17 16 15 14 13 11 13 15 17
3 3 2 2 1 1 3 4 5 5 6 7 8 8 8 8 8 7 7 8 11 13 14 14 16 18 17 17 16 14 15 16 17 17 16 16 15 13 13 13 13 13 14
4 3 3 2 1 0 1 2 4 4 4 6 7 8 9 9 6 6 7 9 10 10 10 12 14 15 15 15 15 16 15 15 17 17 17 16 15 14 14 13 12 12 14
5 4 3 3 2 2 2 2 2 4 4 6 8 9 8 10 11 11 12 12 13 11 10 14 16 17 17 17 16 15 15 16 16 15 16 16 15 15 14 13 12 13 14
5 5 4 4 3 3 4 5 5 5 9 12 13 13 14 14 14 14 15 14 15 11 11 15 17 16 16 16 15 15 15 15 13 14 15 16 16 15 14 14 13 13 14
4 3 3 3 4 4 5 6 6 8 8 8 9 12 14 15 15 16 15 12 13 11 13 15 15 15 15 15 16 15 15 14 14 14 15 16 15 14 14 14 14 15 14
4 4 4 5 5 6 6 7 8 9 10 10 11 8 8 11 14 15 12 11 13 13 13 14 14 15 15 15 15 15 15 14 14 13 13 14 13 13 14 14 14 14 14
4 4 5 7 8 8 8 8 9 10 11 11 11 12 10 11 12 11 11 11 13 13 14 14 14 15 14 15 15 15 15 14 14 13 13 13 13 12 14 15 14 13 13
8 6 6 8 8 8 9 10 10 11 11 12 12 11 9 12 13 14 13 13 13 14 14 14 14 14 14 14 14 15 16 14 13 13 12 12 13 12 12 12 13 13 13
9 10 9 9 9 9 10 11 11 12 13 14 13 12 8 11 12 13 13 13 13 13 13 13 14 13 13 13 13 13 13 13 13 12 12 12 11 11 12 12 13 13 13
10 10 10 10 10 10 10 11 11 12 13 13 13 13 12 12 12 13 13 13 13 13 13 13 13 13 12 11 11 11 12 12 11 11 11 10 10 10 11 12 14 14 13
11 11 11 11 10 11 11 11 12 12 12 13 13 13 13 13 13 13 13 13 13 13 12 12 12 14 16 13 10 10 10 9 9 9 10 10 10 10 10 11 12 13 13
11 11 11 11 11 11 11 12 12 12 12 12 12 12 12 13 13 13 13 12 14 13 14 13 11 12 14 14 12 9 5 5 6 8 8 9 10 11 11 12 11 12 12
11 11 11 11 11 11 11 11 11 12 12 11 11 12 12 12 13 13 13 12 12 12 12 11 12 14 14 11 10 8 5 5 6 7 8 8 9 10 11 10 12 11 13
Wind_Direction
198 199 200 198 197 197 199 197 193 194 191 196 198 200 203 206 209 217 235 224 231 238 239 237 242 263 267 269 265 269 271 275 281 287 289 288 282 283 294 290 283 277 267
199 199 200 199 197 199 200 198 194 194 197 199 202 205 210 212 213 219 228 229 232 238 240 242 244 242 244 260 267 268 271 274 275 284 289 287 280 278 277 280 280 277 279
199 200 201 200 199 202 202 198 197 197 201 202 205 210 215 217 218 221 227 232 235 239 241 242 245 247 248 254 257 267 271 268 268 276 280 283 280 276 279 275 274 271 274
199 200 201 201 201 201 201 199 199 199 202 205 208 214 218 220 222 224 225 230 237 240 241 243 245 245 245 251 253 256 264 273 270 269 275 278 276 274 272 275 276 267 268
200 201 202 200 199 200 200 200 200 203 206 208 213 217 220 222 224 224 228 231 235 241 242 241 243 242 251 251 260 264 263 265 271 271 274 277 278 283 280 282 283 284 274
201 203 199 195 195 198 200 200 202 206 212 213 217 221 223 227 202 207 234 245 243 244 247 247 246 232 231 227 240 251 260 262 267 274 276 277 278 279 280 281 283 282 282
200 202 197 195 196 198 200 201 205 208 212 216 221 225 230 230 199 202 217 242 250 250 250 250 253 250 229 240 231 227 238 242 246 256 268 273 277 276 280 279 274 276 281
198 200 197 197 197 199 203 205 209 212 216 219 224 228 233 232 204 208 213 234 249 252 251 250 251 256 251 246 251 248 246 243 235 236 249 259 264 270 270 271 276 275 270
199 200 197 198 198 198 205 209 211 214 219 223 227 231 235 236 210 208 212 241 245 249 250 249 249 250 244 229 245 254 256 256 247 235 239 249 259 265 263 266 266 268 270
195 194 192 196 201 203 206 209 209 214 222 229 232 234 238 243 220 205 208 241 251 254 252 249 242 241 247 222 239 249 254 257 261 255 235 240 248 248 237 241 253 260 266
175 174 177 189 203 210 211 212 215 219 226 233 242 241 242 246 235 213 210 237 255 260 262 260 256 221 223 225 231 246 252 258 263 263 259 252 247 245 240 232 235 247 258
120 138 164 182 201 204 213 217 221 228 231 233 238 247 247 242 241 231 216 226 249 261 265 267 270 243 221 223 230 242 246 250 257 260 258 256 254 252 247 242 238 240 247
94 121 137 150 179 207 218 223 226 228 243 249 249 253 254 252 241 226 227 230 235 247 261 268 279 279 263 249 239 236 236 243 247 251 253 253 253 253 253 249 246 244 248
61 68 93 110 148 198 239 241 243 245 247 254 260 264 268 265 264 263 257 253 244 247 259 263 254 251 250 257 261 242 237 242 245 248 251 253 253 250 245 246 248 247 248
60 56 59 72 74 17 277 296 285 287 299 286 284 285 283 279 295 327 298 285 287 291 293 276 270 266 260 255 253 251 248 244 240 245 250 252 251 248 248 245 245 249 252
51 40 32 31 25 349 325 301 244 260 257 250 254 267 280 278 292 295 288 281 279 281 280 271 269 266 264 264 263 260 253 250 248 246 246 248 249 249 249 246 243 245 249
36 26 17 11 1 344 330 317 306 268 235 239 241 242 247 266 275 277 277 276 271 256 258 266 268 268 267 267 267 266 266 261 254 249 246 246 247 247 247 247 245 245 247
18 25 350 342 334 324 317 308 302 303 302 294 258 235 237 248 258 262 264 272 273 256 262 267 270 270 270 269 269 269 269 269 261 254 249 248 247 246 246 246 244 245 247
337 337 338 325 311 309 308 304 303 303 302 302 302 287 244 251 250 251 248 267 279 279 277 275 275 275 274 273 272 269 267 265 264 259 254 252 249 247 248 248 248 245 246
297 283 288 301 301 302 302 304 305 306 304 303 302 303 308 305 299 293 284 286 287 287 285 283 280 278 276 275 274 272 268 263 260 258 255 251 249 247 249 250 251 250 246
309 300 259 279 293 301 305 305 304 302 301 301 300 306 317 302 297 297 297 294 292 292 292 289 285 280 276 273 272 269 266 264 261 258 256 251 248 247 248 251 252 252 252
305 303 301 300 301 300 303 301 300 299 299 299 300 299 287 289 295 298 298 299 298 296 294 292 289 286 283 279 275 273 271 267 264 260 256 253 250 249 249 248 248 249 251
299 301 299 298 296 294 289 292 298 301 302 304 303 302 301 299 298 299 301 304 304 301 298 295 293 293 292 285 282 278 274 272 270 266 260 256 253 251 251 252 253 255 253
303 303 301 301 301 300 300 302 303 304 305 305 303 303 302 301 299 300 302 301 301 300 299 298 298 299 301 298 289 283 281 284 282 274 266 260 257 256 255 256 258 258 259
304 306 306 306 305 305 305 305 304 305 305 304 304 305 305 304 302 303 303 302 303 301 301 301 298 301 302 304 304 302 318 312 294 288 272 263 260 259 259 259 260 264 263
310 310 310 309 309 310 310 309 309 309 308 308 307 306 305 305 306 306 306 307 307 306 307 306 306 306 306 305 311 321 315 296 287 283 277 269 265 262 262 262 266 266 270
Height
1532 1534 1537 1539 1541 1543 1545 1546 1547 1548 1549 1551 1552 1553 1554 1555 1556 1556 1558 1558 1558 1558 1558 1558 1557 1557 1557 1557 1557 1556 1555 1555 1553 1552 1551 1549 1547 1545 1544 1543 1541 1540 1540
1528 1530 1533 1536 1538 1539 1541 1543 1544 1545 1546 1547 1549 1550 1551 1553 1553 1554 1554 1555 1555 1555 1555 1555 1555 1555 1554 1553 1553 1553 1552 1550 1549 1548 1546 1545 1544 1541 1539 1537 1537 1537 1536
1524 1526 1529 1531 1533 1535 1537 1539 1540 1541 1543 1544 1545 1547 1548 1549 1550 1550 1551 1552 1552 1552 1552 1552 1551 1551 1550 1550 1549 1549 1548 1547 1546 1544 1542 1541 1539 1538 1536 1534 1533 1531 1530
1519 1522 1524 1526 1529 1531 1533 1535 1536 1538 1539 1540 1542 1543 1544 1545 1546 1547 1547 1548 1548 1548 1548 1547 1547 1547 1546 1546 1545 1544 1543 1543 1542 1540 1538 1537 1535 1534 1532 1531 1529 1528 1526
1515 1517 1519 1522 1525 1527 1529 1531 1532 1534 1535 1537 1538 1539 1540 1541 1542 1543 1544 1544 1544 1544 1544 1543 1543 1542 1541 1541 1541 1541 1540 1538 1538 1536 1535 1533 1531 1530 1529 1527 1525 1524 1522
1509 1512 1515 1517 1520 1522 1524 1526 1528 1530 1531 1533 1534 1535 1536 1538 1538 1538 1539 1540 1540 1539 1539 1538 1538 1536 1536 1535 1535 1534 1534 1533 1532 1531 1530 1529 1527 1526 1524 1522 1521 1519 1517
1504 1507 1510 1512 1515 1517 1520 1522 1523 1525 1527 1528 1529 1530 1531 1532 1533 1533 1534 1534 1534 1534 1533 1533 1533 1533 1531 1530 1528 1527 1527 1526 1525 1525 1523 1522 1521 1520 1519 1517 1515 1513 1511
1500 1502 1505 1507 1510 1512 1515 1517 1518 1520 1522 1523 1524 1525 1526 1527 1527 1528 1528 1528 1527 1527 1527 1526 1526 1525 1525 1524 1523 1522 1521 1519 1518 1517 1515 1514 1514 1513 1512 1510 1509 1506 1504
1496 1498 1500 1503 1505 1507 1510 1512 1514 1516 1517 1518 1519 1519 1520 1521 1521 1522 1522 1521 1521 1520 1520 1519 1519 1518 1518 1517 1516 1515 1514 1513 1512 1510 1508 1507 1506 1505 1504 1503 1502 1501 1498
1492 1494 1496 1499 1501 1503 1506 1508 1509 1510 1512 1513 1514 1514 1514 1514 1515 1515 1515 1515 1515 1514 1513 1512 1511 1510 1510 1509 1509 1508 1506 1505 1505 1504 1501 1499 1497 1496 1495 1494 1494 1494 1492
1490 1491 1492 1494 1497 1499 1502 1503 1505 1506 1506 1507 1507 1508 1508 1508 1508 1508 1508 1507 1507 1507 1506 1506 1505 1503 1502 1501 1501 1499 1498 1498 1497 1496 1494 1492 1490 1488 1487 1485 1484 1484 1484
1487 1488 1490 1491 1493 1495 1497 1498 1499 1500 1500 1500 1500 1501 1501 1501 1501 1500 1500 1500 1499 1498 1497 1497 1497 1495 1493 1492 1491 1490 1489 1489 1487 1486 1485 1484 1482 1481 1480 1479 1477 1475 1474
1486 1487 1487 1488 1489 1491 1492 1493 1493 1494 1495 1495 1495 1495 1495 1495 1494 1493 1492 1491 1490 1489 1487 1487 1486 1485 1484 1482 1480 1480 1479 1478 1477 1476 1475 1474 1473 1472 1471 1470 1468 1466 1465
1484 1485 1485 1485 1486 1487 1488 1489 1489 1490 1490 1489 1489 1489 1489 1488 1488 1486 1485 1484 1482 1481 1479 1477 1476 1474 1473 1471 1470 1469 1467 1466 1466 1465 1464 1464 1464 1463 1462 1461 1460 1459 1457
1483 1484 1483 1483 1483 1484 1484 1485 1485 1485 1484 1484 1483 1482 1482 1481 1480 1479 1477 1476 1474 1473 1470 1468 1466 1465 1463 1461 1460 1458 1457 1456 1455 1454 1453 1453 1453 1453 1452 1452 1451 1450 1448
1483 1483 1483 1483 1483 1483 1483 1482 1480 1480 1479 1478 1476 1476 1474 1473 1471 1470 1469 1467 1465 1463 1460 1458 1457 1455 1453 1452 1450 1448 1447 1445 1444 1444 1443 1443 1442 1442 1442 1442 1441 1440 1439
1483 1483 1483 1483 1482 1482 1481 1480 1478 1476 1474 1472 1471 1469 1467 1466 1464 1462 1460 1458 1456 1454 1451 1448 1447 1445 1443 1441 1440 1438 1436 1435 1434 1433 1432 1432 1432 1432 1432 1432 1431 1431 1430
1484 1483 1483 1482 1481 1480 1478 1477 1475 1473 1471 1469 1466 1463 1461 1459 1456 1454 1452 1449 1446 1445 1442 1440 1437 1435 1433 1431 1430 1428 1426 1425 1424 1423 1422 1422 1422 1422 1422 1422 1421 1421 1421
1484 1483 1482 1480 1479 1477 1476 1474 1472 1469 1467 1464 1462 1459 1456 1453 1450 1447 1444 1442 1439 1437 1435 1432 1429 1427 1424 1422 1420 1418 1417 1415 1414 1413 1412 1412 1412 1412 1412 1412 1412 1412 1411
1482 1481 1479 1478 1476 1474 1472 1470 1468 1465 1462 1459 1457 1454 1451 1448 1445 1442 1439 1436 1433 1430 1427 1424 1421 1418 1416 1413 1411 1409 1407 1406 1405 1404 1403 1403 1402 1403 1403 1403 1403 1403 1402
1480 1478 1476 1474 1472 1470 1468 1466 1463 1461 1458 1454 1452 1449 1445 1442 1439 1436 1432 1429 1426 1422 1419 1415 1412 1409 1406 1404 1402 1400 1398 1397 1396 1395 1394 1394 1394 1394 1394 1394 1394 1394 1393
1477 1474 1472 1470 1468 1466 1463 1461 1458 1455 1452 1449 1446 1443 1439 1436 1433 1429 1426 1422 1419 1415 1411 1408 1404 1401 1398 1396 1394 1392 1390 1389 1388 1387 1386 1386 1386 1385 1386 1386 1386 1386 1385
1472 1470 1468 1465 1463 1460 1458 1455 1453 1450 1446 1443 1440 1437 1433 1430 1426 1423 1419 1415 1411 1407 1404 1400 1397 1393 1391 1388 1386 1384 1382 1381 1380 1379 1379 1378 1378 1378 1378 1378 1378 1378 1378
1468 1466 1463 1460 1458 1455 1453 1450 1447 1444 1441 1437 1434 1430 1427 1423 1420 1416 1412 1408 1404 1400 1397 1393 1390 1387 1384 1381 1379 1377 1376 1375 1374 1373 1372 1372 1372 1372 1372 1371 1371 1371 1371
1464 1461 1458 1456 1453 1450 1447 1444 1441 1438 1435 1432 1428 1425 1421 1417 1413 1410 1406 1402 1398 1394 1390 1387 1384 1381 1378 1375 1373 1371 1370 1369 1368 1367 1366 1366 1366 1366 1365 1365 1365 1364 1364
1459 1456 1454 1451 1448 1445 1442 1439 1436 1433 1430 1426 1422 1419 1415 1411 1407 1404 1400 1396 1392 1388 1385 1381 1378 1375 1373 1370 1368 1366 1365 1363 1362 1362 1361 1361 1360 1360 1360 1359 1359 1358 1357